Location: Anumalkud?ru
(16.4847°N, 80.6636°E)
Time: 09:52:31
(UTC+00:00)

Cosmos 2082 - Pass Details

Date: 11 April 2026
Orbit: 834 x 852 km, 71.0° (Epoch: 12 May)

Event Time Altitude Azimuth Distance (km) Brightness Sun altitude
Rises 13:43:53 0° 340° (NNW) 3,373 7.3 -13.0°
Reaches altitude 10° 13:46:19 10° 338° (NNW) 2,437 6.6 -13.6°
Maximum altitude 13:51:52 71° 255° (WSW) 876 3.9 -14.9°
Drops below altitude 10° 13:57:26 10° 171° (S) 2,435 5.9 -16.2°
Sets 13:59:52 0° 169° (S) 3,369 6.6 -16.8°
